Regional Weather Roundup
Issued by NWS

Home | Current Version | Previous Version | Graphics & Text | Print | Product List | Glossary On
Versions: 1 2 3 4 5 6 7 8 9 10 11 12 13 14 15 16 17 18 19 20 21 22 23 24 25 26 27 28 29 30 31 32 33 34 35 36 37 38 39 40 41 42 43 44 45 46 47 48 49 50
000
ASUS45 KABQ 210210
RWRNM
NEW MEXICO REGIONAL WEATHER ROUNDUP
NATIONAL WEATHER SERVICE ALBUQUERQUE NM
800 PM MDT SUN AUG 20 2017

NOTE: "FAIR" MEANS FEW OR NO CLOUDS BELOW 12,000 FEET AGL WITH NO
       SIGNIFICANT WEATHER OR OBSTRUCTIONS TO VISION.

      THIS PRODUCT IS RELEASED AS TWO VERSIONS.  ONE VERSION NEAR
      THE TOP OF THE HOUR CONTAINING PRELIMINARY DATA FROM ALBUQUERQUE
      AND OTHER STATIONS.  A FINAL VERSION WITH ADDITIONAL DATA IS
      ISSUED ABOUT 10 MINUTES AFTER THE HOUR.

NMZ501-503-504-510>518-210300-
NORTHWEST PLATEAU/NORTHCENTRAL MOUNTAINS

CITY           SKY/WX    TMP DP  RH WIND       PRES   REMARKS
FARMINGTON     FAIR      68  52  56 E15       30.12R
LOS ALAMOS     LGT RAIN  64  47  54 CALM      30.29R
SANTA FE       CLOUDY    65  58  78 E3        30.21R
TAOS           LGT RAIN  60  55  83 E6        30.30R
ANGEL FIRE     CLOUDY    55  47  74 CALM      30.37S

$$
NMZ402-403-502-505>509-210300-
WESTCENTRAL MOUNTAINS/SOUTHWEST MOUNTAINS

CITY           SKY/WX    TMP DP  RH WIND       PRES   REMARKS
GALLUP         CLOUDY    73  44  35 E16G28    30.22R
GRANTS         MOCLDY    69  45  42 SE14      30.23R
SILVER CITY    CLOUDY    69  57  65 S5        30.14R

$$
NMZ407-409-411-412-210300-
SOUTHERN DESERTS

CITY           SKY/WX    TMP DP  RH WIND       PRES   REMARKS
DEMING         MOCLDY    73  62  68 CALM      30.07R
LAS CRUCES     FAIR      71  65  82 SE3       30.09R
HOLLOMAN AFB   FAIR      70  62  74 NW6       30.10R
ALAMOGORDO     FAIR      72  64  78 W6        30.10R
T OR C         FAIR      72  59  63 SE5       30.08S

$$
NMZ519>523-210300-
CENTRAL VALLEYS/CENTRAL HIGHLANDS

CITY           SKY/WX    TMP DP  RH WIND       PRES   REMARKS
ALBUQUERQUE    MOCLDY    72  51  47 CALM      30.14R
DOUBLE EAGLE   CLOUDY    70  48  46 CALM      30.18R
MORIARTY ARPT  CLOUDY    64  58  80 CALM      30.22S
CLINES CORNERS CLOUDY    61  51  70 NE8       30.26R
BELEN          CLOUDY    72  51  48 S9        30.14R
SOCORRO        FAIR      70  54  56 CALM      30.12R

$$
NMZ524>526-539-540-210300-
SOUTHCENTRAL MOUNTAINS

CITY           SKY/WX    TMP DP  RH WIND       PRES   REMARKS
RUIDOSO        NOT AVBL

$$
NMZ527>531-210300-
NORTHEAST HIGHLANDS/NORTHEAST PLAINS

CITY           SKY/WX    TMP DP  RH WIND       PRES   REMARKS
LAS VEGAS      LGT RAIN  63  49  60 W9        30.26R
RATON          FAIR      68  46  45 N13       30.16F
CLAYTON        FAIR      72  58  61 S21       30.10R

$$
NMZ532>537-210300-
EASTCENTRAL PLAINS

CITY           SKY/WX    TMP DP  RH WIND       PRES   REMARKS
SANTA ROSA     LGT RAIN  66  62  86 SE15      30.15R
TUCUMCARI      LGT RAIN  67  62  84 SE14      30.11R
CANNON AFB     LGT RAIN  65  65 100 NW9       30.18R
CLOVIS AIRPORT HVY RAIN  67  65  93 SW8       30.19R

$$
NMZ028-029-538-210300-
SOUTHEAST PLAINS

CITY           SKY/WX    TMP DP  RH WIND       PRES   REMARKS
ROSWELL        CLOUDY    71  65  81 E5        30.09R
ARTESIA        FAIR      72  70  94 S15       30.08R
CARLSBAD       LGT RAIN  70  70 100 SE6       30.06R
HOBBS          CLOUDY    72  64  78 SW8       30.10R


$$




USA.gov is the U.S. government's official web portal to all federal, state and local government web resources and services.